TimePST,TemperatureF,Dew PointF,Humidity,Sea Level PressureIn,VisibilityMPH,Wind Direction,Wind SpeedMPH,Gust SpeedMPH,PrecipitationIn,Events,Conditions,WindDirDegrees,DateUTC
12:53 AM,68.0,19.9,16,30.10,10.0,Variable,4.6,-,N/A,,Clear,0,2014-01-16 08:53:00
1:53 AM,61.0,23.0,23,30.10,10.0,Calm,Calm,-,N/A,,Clear,0,2014-01-16 09:53:00
2:53 AM,57.9,23.0,26,30.10,10.0,Calm,Calm,-,N/A,,Clear,0,2014-01-16 10:53:00
3:53 AM,60.1,21.0,22,30.09,10.0,Calm,Calm,-,N/A,,Clear,0,2014-01-16 11:53:00
4:53 AM,55.0,23.0,29,30.09,10.0,East,3.5,-,N/A,,Clear,80,2014-01-16 12:53:00
5:53 AM,57.9,21.9,25,30.10,10.0,Calm,Calm,-,N/A,,Clear,0,2014-01-16 13:53:00
6:53 AM,57.2,19.4,23,30.11,10.0,Calm,Calm,-,N/A,,Partly Cloudy,0,2014-01-16 14:53:00
7:53 AM,62.6,19.4,19,30.12,10.0,Calm,Calm,-,N/A,,Partly Cloudy,0,2014-01-16 15:53:00
8:53 AM,69.8,19.4,15,30.13,10.0,Calm,Calm,-,N/A,,Partly Cloudy,0,2014-01-16 16:53:00
9:53 AM,66.2,24.8,21,30.14,8.0,ESE,3.5,-,N/A,,Mostly Cloudy,120,2014-01-16 17:53:00
10:53 AM,71.6,41.0,33,30.13,10.0,Calm,Calm,-,N/A,,Mostly Cloudy,0,2014-01-16 18:53:00
11:53 AM,80.6,17.6,10,30.09,10.0,SW,6.9,-,N/A,,Scattered Clouds,220,2014-01-16 19:53:00
12:53 PM,82.4,12.2,7,30.05,10.0,Variable,3.5,-,N/A,,Scattered Clouds,0,2014-01-16 20:53:00
1:53 PM,80.6,24.8,13,30.04,10.0,West,5.8,-,N/A,,Scattered Clouds,270,2014-01-16 21:53:00
2:53 PM,77.0,21.2,12,30.04,10.0,West,9.2,-,N/A,,Partly Cloudy,260,2014-01-16 22:53:00
3:53 PM,73.4,33.8,23,30.04,10.0,West,4.6,-,N/A,,Partly Cloudy,270,2014-01-16 23:53:00
6:53 PM,72.0,25.0,17,30.05,10.0,WNW,4.6,-,N/A,,Clear,300,2014-01-17 02:53:00
7:53 PM,72.0,19.9,14,30.06,10.0,Calm,Calm,-,N/A,,Clear,0,2014-01-17 03:53:00
8:53 PM,69.1,21.0,16,30.06,10.0,ESE,3.5,-,N/A,,Clear,110,2014-01-17 04:53:00
9:53 PM,66.9,28.9,24,30.07,10.0,Calm,Calm,-,N/A,,Clear,0,2014-01-17 05:53:00
10:53 PM,64.9,26.1,23,30.07,10.0,Calm,Calm,-,N/A,,Clear,0,2014-01-17 06:53:00
11:53 PM,66.9,23.0,19,30.06,10.0,NE,6.9,-,N/A,,Clear,40,2014-01-17 07:53:00